Wind_Speed
27 25 24 24 23 24 25 24 24 23 24 26 25 23 22 20 19 18 18 17 16 15 14 14 13 13 12 12 13 13 14 14 15 15 16 18 17 17 18 18 18 17 16 16
28 25 23 23 22 22 22 24 25 25 26 27 26 24 23 22 21 20 18 17 16 15 15 14 13 13 12 13 13 13 14 14 15 15 16 17 18 17 17 17 17 16 16 17
27 25 23 23 22 23 25 26 25 26 26 26 24 22 21 21 21 20 19 18 17 16 15 15 14 13 13 14 14 14 14 15 16 17 17 17 18 18 18 17 17 16 17 16
28 28 26 24 23 23 24 24 24 26 27 27 25 22 21 21 21 20 19 18 17 16 14 14 14 14 14 14 14 14 14 15 16 17 17 17 17 17 18 18 17 18 18 18
28 27 25 23 22 21 22 24 26 26 27 27 24 23 23 23 22 19 19 18 17 16 16 15 15 15 15 14 15 15 15 16 16 16 16 16 17 17 17 17 18 19 19 20
28 27 26 25 23 22 23 24 25 25 25 25 24 24 24 22 21 20 19 18 18 16 16 16 16 16 15 15 15 16 16 16 17 16 16 16 16 16 17 17 18 18 19 21
27 27 26 24 23 23 24 25 25 25 25 25 25 25 24 22 21 20 19 19 19 18 17 17 17 18 17 16 16 16 16 16 17 17 17 17 17 17 18 18 18 19 19 20
27 27 26 25 24 23 25 25 25 25 24 24 24 24 23 22 21 20 20 20 19 19 18 18 19 18 18 17 17 17 17 17 17 17 17 17 17 18 19 19 19 20 20 20
27 28 26 25 25 24 24 23 23 24 24 24 24 23 23 23 22 21 21 21 20 20 20 20 19 19 19 19 18 17 17 17 17 17 18 18 18 19 19 19 19 20 20 21
28 28 26 26 26 24 22 23 22 23 23 23 23 23 23 23 22 21 21 21 21 20 20 20 19 19 19 19 19 19 18 18 18 18 18 18 19 19 19 20 20 21 22 23
28 26 24 24 24 24 23 23 23 23 23 23 23 23 23 23 23 23 22 21 21 21 20 20 20 19 19 19 19 19 19 19 19 19 19 19 20 20 21 22 22 23 24 25
26 25 26 25 23 23 22 23 23 23 23 22 23 23 23 23 23 22 22 22 22 22 21 21 21 21 20 20 20 21 21 21 21 21 22 22 22 22 24 25 25 26 26 27
24 24 25 24 24 23 23 22 22 22 22 23 22 22 22 23 22 22 22 22 22 23 23 21 21 21 21 22 22 22 22 22 23 23 23 24 24 25 26 26 27 27 27 28
23 23 23 23 23 22 22 22 22 22 22 22 22 23 23 23 23 22 22 22 23 23 23 22 22 21 21 21 22 22 22 23 24 26 26 26 26 27 28 28 28 28 29 29
22 22 21 21 20 21 21 21 21 20 20 20 20 21 22 21 22 22 21 22 22 23 23 23 23 23 23 23 22 23 23 24 24 26 27 28 28 28 29 29 29 30 30 31
21 21 20 20 20 20 19 19 19 19 18 18 18 18 20 20 20 21 21 22 22 22 23 23 24 24 24 23 24 24 25 25 26 27 28 29 29 29 30 31 31 31 32 33
20 19 18 19 19 19 19 18 18 18 18 18 18 18 19 20 20 20 20 21 22 22 23 23 23 23 23 24 25 26 27 27 28 30 29 29 30 30 30 31 32 33 34 35
20 20 19 19 19 18 18 18 18 17 17 18 18 17 18 19 20 20 20 20 21 22 22 23 23 24 24 24 25 26 27 28 29 29 29 30 31 31 32 33 34 35 36 36
19 18 18 18 18 18 18 18 18 17 17 16 16 16 16 17 17 18 19 20 20 21 22 23 23 24 24 24 25 26 27 28 28 28 29 30 31 31 33 34 34 35 36 36
17 17 17 17 17 16 16 16 16 15 15 15 16 16 16 16 16 16 17 19 20 21 22 23 23 25 26 26 27 27 28 28 29 30 30 31 32 32 33 34 35 37 38 39
15 16 15 16 16 16 16 16 15 15 15 15 15 15 15 14 15 14 15 16 17 19 19 20 21 22 23 24 25 25 26 27 28 29 30 30 30 31 32 33 35 37 38 39
13 13 13 14 15 15 15 16 16 16 15 14 14 14 14 14 14 14 14 15 16 17 18 18 19 19 20 21 21 22 23 24 26 27 28 28 29 31 33 34 36 38 39 40
12 12 12 13 14 15 15 15 15 15 15 14 14 14 15 15 15 15 15 15 16 17 18 18 19 19 20 21 22 23 24 25 26 27 28 29 31 33 35 36 38 39 40 41
12 11 11 11 12 13 14 14 14 15 15 15 15 16 16 15 15 15 16 17 17 17 18 19 19 20 20 21 22 23 25 26 27 28 30 31 33 34 36 37 39 40 41 41
12 12 12 12 12 12 12 12 13 13 14 14 14 14 14 15 15 15 16 16 17 17 17 18 19 20 21 23 24 25 26 27 28 29 31 32 34 35 36 37 38 38 38 38
12 12 12 12 12 12 12 12 12 12 13 13 14 14 14 15 15 15 16 16 17 18 19 19 21 22 23 24 25 27 28 28 30 31 32 33 34 35 36 36 36 37 37 38
11 12 12 11 12 12 12 12 12 13 13 13 14 14 14 15 15 16 17 18 19 20 21 22 23 24 25 26 27 28 29 30 31 32 33 34 34 34 35 36 36 37 37 37
Wind_Direction
217 224 225 225 228 230 231 237 242 239 244 249 247 253 258 263 267 266 266 265 262 259 259 255 250 246 243 235 228 222 220 218 215 214 213 211 212 215 219 222 226 232 235 240
221 226 228 231 233 235 238 240 245 244 246 248 248 253 258 260 261 263 264 264 262 262 257 249 243 240 234 227 223 221 219 216 213 213 213 213 217 219 223 226 230 237 241 245
223 228 232 234 240 241 241 240 241 243 246 248 248 253 251 255 260 263 264 261 259 259 254 244 237 234 229 224 221 220 218 215 215 214 214 217 220 223 227 231 237 243 245 248
223 228 234 234 236 240 242 241 241 243 244 245 247 251 254 256 257 259 259 256 253 252 247 240 235 233 231 223 221 220 217 214 214 215 216 222 224 226 230 234 240 247 250 251
224 229 234 232 234 237 240 241 242 241 242 244 244 247 251 254 256 256 255 252 251 249 242 238 235 234 231 224 220 219 218 217 216 217 221 225 227 229 234 239 244 251 254 256
228 228 231 232 232 234 239 241 241 242 243 245 246 245 247 252 253 252 250 247 247 245 240 237 235 233 230 226 223 222 222 221 222 224 226 229 232 236 239 243 249 255 259 260
228 231 235 233 234 233 236 240 242 244 246 246 245 245 247 250 249 247 247 244 244 243 239 237 236 232 229 229 227 226 225 224 226 228 231 235 238 241 244 249 254 257 260 262
232 234 235 237 237 233 238 243 245 245 246 246 247 246 246 247 246 245 244 242 242 242 239 237 236 232 230 228 227 227 226 227 229 232 236 242 244 247 250 253 257 261 263 265
234 235 237 238 239 241 240 243 244 245 245 247 247 244 243 242 243 243 243 242 243 242 238 235 236 235 231 230 229 230 231 231 233 236 240 244 247 250 252 255 259 261 265 268
233 235 237 240 240 242 241 243 243 245 245 245 245 245 243 241 240 240 239 241 241 239 236 234 234 233 232 231 232 233 233 235 239 242 245 247 249 251 255 258 261 264 267 270
234 236 238 236 238 241 243 242 242 243 245 245 246 246 244 241 240 239 239 238 236 235 233 232 233 233 233 234 234 236 237 239 242 244 246 249 252 255 258 260 263 267 270 272
235 237 239 239 241 240 241 242 244 245 244 245 247 248 245 240 239 240 241 238 235 233 232 233 235 237 238 238 238 240 243 244 246 249 251 254 257 259 262 263 266 269 272 275
235 238 239 242 243 240 239 242 244 244 244 245 246 244 242 241 242 242 239 237 237 235 233 235 238 240 241 242 243 244 247 249 250 252 254 257 260 263 265 267 269 271 274 277
236 238 240 240 240 237 236 239 243 244 244 245 245 243 242 240 240 240 238 235 235 236 235 236 239 241 244 246 247 249 251 252 254 255 258 260 262 265 266 268 269 273 276 279
234 235 235 236 237 236 236 237 240 242 243 244 245 242 241 241 240 238 237 234 234 236 237 237 239 242 245 247 249 251 253 254 257 259 260 260 262 265 267 269 271 274 276 279
234 233 235 238 239 238 235 236 238 239 241 243 244 243 241 240 238 236 235 235 234 236 237 239 240 244 247 250 252 253 256 258 259 262 263 262 264 267 269 272 274 276 278 279
234 234 235 234 235 236 235 237 237 239 239 239 241 242 240 237 237 236 236 236 235 235 237 239 242 245 247 250 253 254 257 259 262 265 265 266 270 272 274 277 279 282 283 284
233 233 233 234 236 236 236 235 237 239 239 240 239 239 237 237 238 237 235 235 235 236 238 241 243 245 249 252 255 257 259 262 265 264 266 271 273 274 277 280 282 283 285 286
230 233 234 235 235 237 237 236 236 238 238 239 239 239 237 235 236 237 238 240 241 241 243 247 250 251 253 256 259 261 263 266 267 268 270 272 274 277 279 281 283 285 286 288
231 231 231 232 234 235 234 234 235 236 234 233 234 235 235 236 238 242 243 243 242 245 248 251 255 257 257 258 261 262 263 265 268 269 272 274 276 278 280 281 283 284 287 288
224 226 227 228 229 229 229 230 232 233 232 232 232 235 234 238 242 245 246 247 247 248 251 254 258 260 262 263 263 265 266 267 269 271 273 275 278 280 282 284 286 287 288 289
220 220 220 220 221 222 224 227 230 232 233 235 236 237 236 239 243 247 251 256 259 261 262 265 267 268 270 272 274 275 275 276 276 277 278 280 282 283 286 288 289 290 291 292
215 217 219 220 221 222 225 228 230 230 231 233 235 237 240 244 247 250 254 259 262 263 264 265 267 270 274 275 276 277 279 280 282 284 286 287 287 288 289 290 292 293 294 294
214 216 215 216 218 216 220 226 230 230 232 234 236 239 243 247 250 253 256 259 262 265 268 270 272 274 276 278 280 282 284 285 286 286 287 289 291 291 292 293 294 294 295 297
214 216 217 218 218 219 222 225 228 231 235 238 242 245 250 255 256 258 261 263 266 271 275 278 280 283 285 286 286 286 288 288 289 290 291 293 294 294 294 295 296 297 298 298
211 211 211 212 215 218 221 223 227 233 238 242 245 250 255 259 260 263 265 270 274 278 280 282 284 286 287 289 290 291 292 293 293 294 295 295 296 296 297 297 298 298 298 298
213 218 220 225 228 227 230 236 240 244 248 250 253 258 262 265 268 270 272 275 278 280 282 285 287 288 289 290 291 292 293 294 295 296 296 296 297 297 298 298 298 298 298 298
Height
5773 5775 5778 5781 5784 5788 5790 5793 5795 5797 5798 5797 5798 5799 5799 5800 5801 5802 5803 5804 5805 5805 5806 5806 5806 5807 5809 5810 5811 5813 5815 5818 5820 5823 5825 5829 5832 5836 5839 5842 5845 5848 5850 5852
5767 5771 5773 5776 5779 5782 5785 5788 5789 5791 5792 5790 5791 5793 5795 5796 5797 5798 5799 5800 5800 5801 5802 5802 5803 5804 5806 5808 5809 5811 5813 5816 5818 5821 5824 5827 5830 5834 5836 5839 5842 5844 5846 5848
5763 5766 5767 5771 5774 5776 5779 5781 5783 5784 5785 5785 5785 5787 5789 5791 5793 5794 5795 5796 5797 5798 5798 5798 5800 5802 5803 5805 5807 5809 5811 5814 5816 5819 5822 5825 5827 5831 5834 5836 5839 5840 5842 5844
5757 5761 5763 5767 5768 5770 5772 5774 5776 5778 5778 5779 5780 5783 5785 5786 5787 5789 5790 5791 5792 5793 5794 5795 5797 5799 5801 5803 5805 5807 5809 5812 5814 5817 5820 5822 5825 5828 5831 5833 5835 5837 5838 5840
5751 5754 5757 5760 5762 5765 5766 5768 5769 5770 5771 5773 5775 5779 5780 5781 5783 5784 5785 5787 5788 5790 5791 5793 5795 5796 5798 5800 5802 5805 5807 5809 5812 5815 5817 5820 5822 5825 5827 5829 5831 5832 5834 5835
5745 5747 5751 5755 5756 5758 5762 5762 5763 5764 5767 5769 5771 5774 5776 5777 5778 5780 5781 5782 5784 5786 5788 5790 5791 5793 5796 5798 5800 5802 5804 5806 5809 5812 5814 5816 5819 5821 5823 5825 5826 5828 5829 5829
5738 5741 5743 5746 5748 5752 5756 5757 5758 5760 5762 5764 5766 5768 5771 5772 5774 5775 5777 5778 5780 5782 5784 5786 5787 5789 5792 5794 5796 5799 5801 5803 5806 5808 5810 5812 5815 5817 5819 5820 5822 5822 5823 5824
5733 5735 5739 5739 5742 5745 5748 5750 5752 5755 5756 5758 5760 5763 5765 5767 5768 5770 5772 5774 5775 5778 5780 5781 5783 5785 5788 5791 5793 5795 5797 5800 5802 5804 5806 5809 5810 5812 5814 5815 5816 5817 5818 5819
5728 5731 5732 5734 5736 5739 5741 5744 5746 5748 5751 5753 5755 5757 5759 5761 5763 5765 5767 5769 5771 5773 5776 5778 5780 5782 5784 5787 5789 5792 5794 5796 5799 5801 5803 5805 5807 5808 5809 5811 5812 5812 5813 5813
5720 5723 5726 5728 5731 5733 5736 5738 5741 5743 5745 5747 5749 5752 5754 5756 5758 5761 5763 5765 5767 5769 5771 5774 5776 5778 5780 5783 5786 5788 5790 5793 5794 5796 5798 5800 5802 5803 5804 5805 5806 5807 5807 5807
5715 5718 5720 5722 5725 5727 5731 5733 5736 5738 5739 5742 5744 5746 5748 5751 5753 5756 5758 5760 5762 5765 5767 5770 5772 5774 5776 5779 5782 5784 5786 5788 5790 5791 5793 5795 5796 5797 5798 5799 5800 5800 5800 5800
5709 5712 5715 5717 5720 5723 5726 5728 5730 5733 5734 5736 5739 5741 5743 5745 5748 5751 5753 5755 5758 5760 5763 5765 5768 5770 5773 5775 5777 5779 5781 5783 5785 5786 5788 5789 5790 5791 5792 5792 5793 5793 5793 5792
5704 5706 5709 5712 5714 5717 5720 5723 5725 5727 5730 5732 5734 5736 5738 5740 5743 5745 5748 5751 5753 5756 5758 5761 5763 5766 5768 5770 5772 5774 5776 5778 5779 5780 5782 5783 5783 5784 5785 5785 5785 5785 5785 5784
5699 5702 5705 5707 5709 5712 5715 5717 5720 5722 5724 5726 5729 5731 5733 5735 5738 5740 5743 5745 5748 5751 5753 5756 5759 5761 5763 5765 5767 5768 5770 5771 5773 5774 5775 5776 5776 5777 5777 5777 5777 5777 5776 5776
5695 5698 5700 5702 5704 5707 5710 5713 5715 5718 5720 5722 5724 5726 5728 5730 5733 5735 5738 5740 5743 5746 5748 5751 5753 5755 5757 5759 5761 5762 5764 5765 5766 5767 5768 5768 5769 5769 5769 5769 5769 5768 5768 5767
5691 5693 5696 5698 5700 5703 5706 5708 5711 5713 5715 5717 5719 5721 5723 5726 5728 5730 5733 5735 5738 5741 5743 5745 5748 5749 5751 5753 5755 5756 5757 5758 5759 5760 5760 5761 5761 5761 5761 5760 5759 5759 5758 5757
5687 5689 5692 5694 5697 5699 5702 5704 5706 5709 5711 5713 5715 5717 5718 5721 5723 5726 5728 5730 5733 5735 5738 5740 5742 5744 5746 5747 5749 5750 5751 5752 5752 5752 5753 5753 5752 5752 5752 5752 5751 5749 5748 5746
5683 5686 5688 5690 5693 5696 5698 5700 5703 5705 5707 5709 5711 5712 5714 5717 5719 5721 5724 5726 5728 5730 5732 5734 5736 5738 5740 5741 5742 5743 5744 5745 5745 5745 5745 5744 5744 5744 5743 5743 5741 5740 5738 5737
5679 5682 5684 5687 5689 5692 5694 5696 5698 5700 5702 5704 5706 5708 5710 5713 5715 5717 5719 5721 5723 5725 5727 5729 5730 5731 5732 5734 5735 5735 5736 5736 5737 5736 5736 5736 5736 5735 5734 5733 5732 5730 5728 5727
5676 5678 5680 5683 5685 5688 5690 5692 5694 5696 5698 5700 5703 5705 5707 5709 5711 5713 5715 5717 5718 5720 5722 5723 5724 5725 5726 5726 5727 5728 5728 5728 5728 5728 5728 5728 5727 5726 5725 5724 5722 5720 5718 5716
5672 5674 5676 5679 5682 5684 5687 5689 5691 5693 5695 5697 5700 5701 5703 5706 5708 5709 5710 5712 5713 5715 5716 5717 5718 5719 5719 5720 5720 5720 5720 5720 5720 5720 5720 5719 5718 5717 5715 5713 5712 5710 5707 5704
5668 5671 5673 5676 5678 5681 5683 5686 5688 5690 5692 5694 5696 5698 5700 5702 5704 5705 5706 5708 5709 5710 5711 5712 5712 5713 5713 5713 5713 5713 5713 5713 5713 5712 5711 5710 5709 5707 5706 5704 5701 5699 5696 5693
5666 5668 5671 5673 5675 5678 5680 5683 5685 5687 5689 5691 5693 5695 5697 5698 5700 5702 5703 5704 5705 5706 5706 5707 5707 5707 5707 5707 5707 5706 5706 5705 5705 5704 5703 5701 5699 5698 5696 5693 5690 5687 5684 5680
5665 5667 5669 5671 5673 5675 5677 5679 5682 5684 5686 5688 5690 5691 5693 5695 5696 5697 5698 5699 5700 5701 5701 5701 5701 5701 5701 5701 5700 5700 5699 5698 5696 5695 5693 5691 5689 5687 5684 5681 5678 5675 5671 5668
5663 5666 5668 5670 5672 5674 5675 5677 5679 5681 5683 5685 5686 5688 5689 5691 5692 5692 5693 5694 5695 5695 5695 5696 5695 5695 5694 5694 5693 5692 5691 5689 5688 5686 5684 5681 5679 5676 5673 5670 5666 5663 5660 5656
5662 5664 5666 5668 5670 5672 5674 5675 5677 5679 5681 5682 5683 5685 5686 5687 5687 5688 5688 5689 5689 5690 5690 5690 5689 5688 5687 5686 5685 5684 5682 5680 5678 5676 5674 5671 5668 5665 5661 5658 5655 5652 5648 5645
5661 5663 5665 5667 5668 5670 5672 5673 5675 5676 5678 5679 5680 5681 5681 5682 5683 5683 5683 5684 5684 5684 5683 5683 5682 5681 5680 5678 5677 5675 5673 5671 5669 5666 5663 5660 5657 5654 5651 5648 5645 5641 5637 5634